GW1187 Weather Reports


time (UTC)temp
C
wind
direction
speed
KPH
gust
KPH
rain 1hr
cm
rain 24hr
cm
rain mn
cm
humidity
%
barometer
mb
20260504183047 20 142 9.7 24.1 0.00 0.00 0.00 32 1006.5
20260504181552 20 101 4.8 19.3 0.00 0.00 0.00 32 1006.6
20260504180047 18 30 8.0 19.3 0.00 0.00 0.00 33 1006.6
20260504174541 18 328 6.4 14.5 0.00 0.00 0.00 34 1006.9
20260504173040 18 193 3.2 14.5 0.00 0.00 0.00 33 1006.6
20260504171548 19 348 8.0 32.2 0.00 0.00 0.00 31 1006.8
20260504081549 5 44 1.6 4.8 0.00 0.00 0.00 67 1009.4
20260504044545 0 0 0.0 0.0 0.00 0.00 0.00 84 1009.7
20260504043055 0 0 0.0 1.6 0.00 0.00 0.00 85 1009.7
20260504041544 0 0 0.0 0.0 0.00 0.00 0.00 85 1009.8
20260504040043 0 0 0.0 0.0 0.00 0.00 0.00 86 1009.6
20260504034541 0 0 0.0 0.0 0.00 0.00 0.00 85 1009.5
20260504033048 0 0 0.0 0.0 0.00 0.00 0.00 85 1009.5
20260504031546 0 0 0.0 0.0 0.00 0.00 0.00 84 1009.4
20260504030047 0 0 0.0 0.0 0.00 0.00 0.00 83 1009.3
20260504024545 0 0 0.0 0.0 0.00 0.00 0.00 83 1009.4
20260504023041 0 0 0.0 0.0 0.00 0.00 0.00 82 1009.3
20260504021547 1 0 0.0 0.0 0.00 0.00 0.00 80 1009.4
20260504020125 1 0 0.0 0.0 0.00 0.00 0.00 79 1009.3
20260504014559 2 0 0.0 0.0 0.00 0.00 0.00 78 1009.1
20260504013055 2 0 0.0 0.0 0.00 0.00 0.00 75 1009.0
20260504011541 2 0 0.0 0.0 0.00 0.00 0.00 73 1008.9
20260504010044 3 0 0.0 0.0 0.00 0.00 0.00 70 1008.6
20260504004608 4 0 0.0 0.0 0.00 0.00 0.00 68 1008.2
20260504003051 5 0 0.0 0.0 0.00 0.00 0.00 61 1008.2
20260504001617 5 0 0.0 0.0 0.00 0.00 0.00 58 1008.0
20260504000048 6 0 0.0 0.0 0.00 0.00 0.00 53 1007.8
20260503234543 7 115 0.0 4.8 0.00 0.00 0.00 50 1007.8
20260503233102 8 51 0.0 3.2 0.00 0.00 0.00 45 1007.6
20260503231541 8 27 1.6 4.8 0.00 0.00 0.00 44 1007.5
20260503230106 9 162 3.2 16.1 0.00 0.00 0.00 43 1007.5
20260503224546 9 127 3.2 8.0 0.00 0.03 0.00 44 1007.4
20260503223045 8 207 1.6 9.7 0.00 0.03 0.00 44 1007.3
20260503221542 8 181 4.8 14.5 0.00 0.03 0.00 45 1007.3
20260503220048 8 135 3.2 12.9 0.00 0.03 0.00 43 1007.2
20260503214540 8 150 3.2 12.9 0.00 0.13 0.00 42 1007.1
20260503213047 9 48 6.4 16.1 0.00 0.13 0.00 41 1007.1
20260503211548 9 170 3.2 19.3 0.00 0.13 0.00 41 1006.9
20260503210045 10 77 3.2 12.9 0.00 0.13 0.00 41 1006.4
20260503204545 9 167 6.4 25.7 0.00 0.20 0.00 40 1006.5
20260503203101 10 171 4.8 24.1 0.00 0.20 0.00 40 1006.6
20260503201541 10 177 4.8 14.5 0.00 0.20 0.00 39 1006.5
20260503200049 10 45 6.4 17.7 0.00 0.20 0.00 39 1006.4
20260503194547 9 136 8.0 20.9 0.00 0.25 0.00 42 1006.4
20260503193045 9 236 4.8 22.5 0.00 0.25 0.00 43 1006.4
20260503191547 10 160 6.4 14.5 0.00 0.25 0.00 42 1006.2
20260503190044 9 196 4.8 20.9 0.00 0.25 0.00 38 1006.3
20260503184548 9 117 4.8 17.7 0.00 0.25 0.00 39 1006.2